Probability
0 0 0 0 0 0 0 0 0 0 0 0 0 0 0 2 12 32 56 72 78 78 76 71 65 62 60 60 61 63 66 69 71 75 79 83 84 87 90 91 87 81 78 78
0 0 0 0 0 0 0 0 0 0 0 0 0 0 0 3 12 31 51 64 70 70 67 61 55 49 46 45 47 51 56 58 59 61 69 77 81 83 85 87 87 84 82 81
0 0 0 0 0 0 0 0 0 0 0 0 0 0 0 3 13 28 41 50 56 56 52 45 38 32 28 27 30 35 39 39 38 40 51 64 73 76 77 79 81 82 82 81
0 0 0 0 0 0 0 0 0 0 0 0 0 0 0 4 11 21 30 37 40 39 35 29 23 17 16 18 22 28 29 25 22 24 31 42 52 57 60 61 63 66 68 69
0 0 0 0 0 0 0 0 0 0 0 0 0 0 0 2 6 11 17 22 23 20 18 15 12 10 11 17 25 31 29 22 18 16 16 18 24 30 33 35 37 39 43 47
0 0 0 0 0 0 0 0 0 0 0 0 0 0 0 0 2 4 7 9 9 7 7 8 9 9 12 20 30 34 30 23 19 15 9 5 7 10 12 14 16 18 21 23
0 0 0 0 0 0 0 0 0 0 0 0 0 0 0 0 0 1 1 2 3 3 5 7 9 10 14 22 28 27 22 18 18 15 8 3 2 2 3 5 6 7 8 9
0 0 0 0 0 0 0 0 0 0 0 0 0 0 0 0 0 0 0 1 2 3 5 7 9 10 15 20 20 17 13 13 15 14 9 3 1 0 0 1 1 2 3 4
0 0 0 0 0 0 0 0 0 0 0 0 0 0 0 0 0 0 0 1 1 2 4 6 6 8 12 14 12 9 9 10 12 11 9 5 2 0 0 0 0 0 1 1
0 0 0 0 0 0 0 0 0 0 0 0 0 0 0 0 0 0 0 0 0 1 2 3 3 4 6 7 6 6 7 7 7 8 8 6 2 0 0 0 0 0 0 0
0 0 0 0 0 0 0 0 0 0 0 0 0 0 0 0 0 0 0 0 0 0 1 1 1 1 2 3 3 5 6 4 3 4 6 5 2 0 0 0 0 0 0 0
0 0 0 0 0 0 0 0 0 0 0 0 0 0 0 0 0 0 0 0 0 0 0 0 0 0 0 1 2 4 5 3 1 2 4 4 1 0 0 0 0 0 0 0
0 0 0 0 0 0 0 0 0 0 0 0 0 0 0 0 0 0 0 0 0 0 0 0 0 0 0 0 1 3 5 4 1 2 4 3 1 0 0 0 0 0 0 0
0 0 0 0 0 0 0 0 0 0 0 0 0 0 0 0 0 0 0 0 0 0 0 0 0 0 0 0 0 1 3 4 2 2 3 2 0 0 0 0 0 0 0 0
0 0 0 0 0 0 0 0 0 0 0 0 0 0 0 0 0 0 0 0 0 0 0 0 0 0 0 0 0 0 1 3 2 2 3 2 1 0 0 0 0 0 0 0
0 0 0 0 0 0 0 0 0 0 0 0 0 0 0 0 0 0 0 0 0 0 0 0 0 0 0 0 0 0 1 1 1 1 2 2 1 0 0 0 0 0 0 0
0 0 0 0 0 0 0 0 0 0 0 0 0 0 0 0 0 0 0 0 0 0 0 0 0 0 0 0 0 0 0 0 0 0 1 1 1 1 0 0 0 0 0 0
0 0 0 0 0 0 0 0 0 0 0 0 0 0 0 0 0 0 0 0 0 0 0 0 0 0 0 0 0 0 0 0 0 0 0 1 1 1 0 0 0 0 0 0
0 0 0 0 0 0 0 0 0 0 0 0 0 0 0 0 0 0 0 0 0 0 0 0 0 0 0 0 0 0 0 0 0 0 0 0 0 0 0 0 0 0 0 0
0 0 0 0 0 0 0 0 0 0 0 0 0 0 0 0 0 0 0 0 0 0 0 0 0 0 0 0 0 0 0 0 0 0 0 0 0 0 0 0 0 0 0 0
0 0 0 0 0 0 0 0 0 0 0 0 0 0 0 0 0 0 0 0 0 0 0 0 0 0 0 0 0 0 0 0 0 0 0 0 0 0 0 0 0 0 0 0
0 0 0 0 0 0 0 0 0 0 0 0 0 0 0 0 0 0 0 0 0 0 0 0 0 0 0 0 0 0 0 0 0 0 0 0 0 0 0 0 0 0 0 0
0 0 0 0 0 0 0 0 0 0 0 0 0 0 0 0 0 0 0 0 0 0 0 0 0 0 0 0 0 0 0 0 0 0 0 0 0 0 0 0 0 0 0 0
0 0 0 0 0 0 0 0 0 0 0 0 0 0 0 0 0 0 0 0 0 0 0 0 0 0 0 0 0 0 0 0 0 0 0 0 0 0 0 0 0 0 0 0
0 0 0 0 0 0 0 0 0 0 0 0 0 0 0 0 0 0 0 0 0 0 0 0 0 0 0 0 0 0 0 0 0 0 0 0 0 0 0 0 0 0 0 0
0 0 0 0 0 0 0 0 0 0 0 0 0 0 0 0 0 0 0 0 0 0 0 0 0 0 0 0 0 0 0 0 0 0 0 0 0 0 0 0 0 0 0 0
Wind_Speed
1 2 3 7 7 8 5 3 4 5 5 5 3 2 2 3 3 5 7 9 10 9 7 9 10 10 9 8 8 6 5 3 1 1 1 2 3 4 5 5 7 7 6 7
3 5 11 8 3 2 2 4 5 5 6 4 3 3 5 5 1 3 7 9 9 8 6 7 7 7 7 6 6 5 4 2 1 0 1 2 3 4 4 4 5 6 6 6
6 7 5 2 3 3 3 3 3 4 6 5 5 6 7 7 6 7 7 6 7 8 7 6 6 6 6 5 5 4 4 2 1 0 1 2 2 3 3 4 4 5 6 7
2 2 1 2 3 1 2 2 4 5 6 5 4 3 7 5 6 5 5 4 4 4 5 5 5 5 5 5 5 5 4 3 1 1 1 2 2 3 4 4 4 6 6 7
4 3 2 2 1 3 1 3 4 4 3 4 5 1 6 3 2 1 3 4 5 5 5 5 5 5 5 5 5 4 4 2 1 1 1 1 2 3 4 4 5 6 5 6
4 4 1 1 1 2 3 7 8 7 6 3 3 1 5 3 4 3 2 3 5 5 6 6 5 4 4 4 4 4 3 2 1 1 1 1 2 4 5 6 6 5 5 5
6 6 4 0 2 5 6 7 6 7 6 4 4 1 5 5 4 6 6 6 7 6 6 6 6 6 6 6 5 5 5 3 2 1 0 0 1 2 3 5 5 6 6 6
2 5 4 2 1 2 1 8 6 2 3 6 5 0 5 5 6 6 6 6 7 7 7 7 7 7 7 7 7 6 6 5 3 2 1 0 0 1 2 3 4 5 5 6
1 4 6 5 2 4 2 2 9 7 1 2 4 2 4 3 4 5 6 6 7 8 8 8 7 7 7 7 7 8 7 5 4 4 2 1 0 0 2 3 4 4 5 6
2 2 5 6 4 2 3 4 6 5 2 3 5 4 4 6 7 7 6 6 6 5 5 5 6 6 7 7 6 6 7 6 5 4 3 2 1 1 1 2 4 5 6 7
4 3 5 6 2 3 2 1 4 4 5 5 3 7 6 7 6 5 4 3 3 4 4 4 4 5 6 5 6 6 6 6 5 5 4 3 2 1 1 2 4 5 6 7
4 5 2 6 7 3 1 2 5 3 4 5 4 8 8 2 2 3 5 6 6 5 4 3 3 3 3 5 5 6 6 6 6 5 4 4 3 1 0 2 3 4 5 6
5 6 4 10 10 8 5 3 1 3 3 4 4 5 8 9 9 9 8 8 8 9 8 7 5 4 4 4 5 6 6 6 6 5 5 4 3 2 1 2 3 4 5 6
7 5 6 5 7 6 7 10 10 3 3 5 4 1 8 10 10 10 10 9 9 10 10 10 8 7 6 5 4 5 6 6 6 6 6 5 4 3 3 2 2 3 4 5
6 3 4 6 7 6 7 11 11 7 5 5 5 6 5 7 7 8 10 12 14 14 14 13 11 9 8 8 6 5 5 6 6 6 6 6 5 4 3 2 1 2 3 4
4 4 2 4 6 6 6 8 5 7 6 7 8 6 5 6 7 9 10 12 12 13 14 14 14 13 11 10 9 7 7 6 6 7 7 6 6 5 4 3 2 1 1 2
3 5 2 4 6 5 4 5 7 9 9 6 5 3 6 8 11 7 7 10 11 11 12 13 13 13 12 11 10 9 8 6 6 7 7 7 7 7 6 5 3 2 1 1
7 5 4 2 3 1 1 5 11 12 10 8 5 4 6 7 8 4 5 7 10 11 11 11 11 12 12 12 12 11 8 5 6 6 7 7 8 8 7 6 5 4 2 2
8 8 5 4 3 4 2 3 1 3 4 5 5 6 8 8 6 4 4 6 7 8 8 7 7 8 9 11 13 12 9 7 5 6 7 8 9 9 8 8 7 5 4 3
6 5 5 4 4 5 2 8 9 3 4 5 6 7 8 8 6 6 9 11 11 10 8 8 7 7 7 9 11 11 10 8 7 7 7 7 8 10 10 10 8 5 5 5
5 5 1 2 3 1 5 10 8 2 3 7 7 7 8 6 7 10 12 12 11 11 11 9 8 7 7 7 7 9 9 10 10 9 7 6 7 9 10 9 7 7 6 6
3 3 3 2 1 2 7 6 5 2 5 6 8 9 10 11 12 13 13 12 12 12 11 10 8 7 7 6 5 7 9 9 10 9 8 6 7 8 9 9 9 8 9 8
4 1 1 2 1 1 2 3 1 3 6 8 8 11 12 13 14 14 13 12 12 12 11 9 9 9 8 6 5 7 9 8 9 10 9 7 7 8 8 10 10 9 8 8
5 5 4 4 3 1 1 1 3 5 8 10 12 14 14 15 15 15 13 12 11 10 10 9 9 9 9 8 7 8 8 8 8 9 10 8 6 7 8 8 9 9 9 9
4 5 4 4 3 4 4 5 7 9 11 13 14 14 14 14 15 15 13 11 10 9 8 8 8 9 10 9 8 8 7 7 7 8 9 8 6 7 8 8 9 11 10 12
3 3 2 1 3 4 8 10 11 13 14 15 16 15 13 13 14 13 11 9 8 9 8 8 9 9 10 9 9 9 7 7 6 7 8 6 5 5 6 7 5 6 7 14
Wind_Direction
250 89 247 244 219 213 242 280 300 300 328 38 54 60 348 350 72 117 117 112 104 99 97 88 85 85 84 81 81 77 71 53 36 344 291 277 275 270 266 257 255 254 246 238
7 253 240 242 255 247 325 353 334 331 351 39 34 1 349 358 5 139 135 128 121 115 102 96 96 93 94 98 100 99 101 97 80 252 250 248 257 263 258 264 267 263 259 251
217 243 235 230 324 344 7 39 10 344 352 23 50 353 351 346 46 73 102 118 122 128 128 124 114 112 113 113 121 126 136 132 118 2 337 323 313 305 305 298 286 276 269 260
275 276 348 359 336 12 339 346 22 10 22 326 39 339 321 340 41 71 103 117 128 130 133 137 135 135 137 147 146 144 147 143 137 84 33 337 312 299 290 290 288 293 286 278
311 321 358 8 18 53 284 353 7 343 345 344 356 61 286 335 66 124 147 151 161 168 162 167 168 167 169 165 160 160 156 156 152 104 77 347 313 294 298 306 306 303 299 291
290 293 244 213 355 30 34 27 9 26 53 19 292 190 275 272 212 188 189 182 181 182 183 189 194 185 184 175 165 163 163 185 198 153 80 33 331 323 326 327 323 316 308 302
333 338 332 113 46 12 64 67 25 5 11 280 289 61 262 252 197 176 188 201 204 197 191 199 202 197 195 188 180 175 173 194 207 184 143 19 342 333 324 318 318 316 312 308
4 323 319 343 158 182 134 124 141 180 247 285 334 93 257 235 207 201 200 204 207 207 206 210 210 200 197 194 188 185 186 196 197 186 198 185 22 335 307 307 307 307 303 301
158 283 307 319 281 149 148 169 167 141 250 312 304 285 289 270 247 235 228 221 220 220 218 218 215 201 194 191 192 191 188 195 195 190 189 182 174 319 306 307 309 307 304 306
135 272 305 320 2 350 170 162 89 102 147 275 296 289 249 245 242 245 237 233 241 239 235 227 215 206 200 197 196 191 189 195 196 191 190 175 175 221 296 317 316 313 312 310
110 112 318 353 354 286 326 66 111 134 160 166 256 273 253 234 236 238 257 284 286 276 269 253 236 215 205 199 191 189 193 194 196 193 188 175 183 195 335 323 313 314 315 313
118 109 308 286 280 265 133 160 141 155 241 187 190 268 320 349 29 33 13 6 5 358 337 305 271 236 219 208 202 197 196 197 199 192 183 180 177 167 305 311 310 314 316 316
116 94 27 345 344 354 1 330 284 165 155 191 197 263 354 24 31 27 27 16 10 4 358 352 343 318 279 240 217 207 202 201 197 185 177 176 176 182 220 275 302 309 317 321
104 110 150 202 244 275 304 308 304 280 217 229 208 118 2 11 17 14 15 10 10 8 4 358 348 335 317 288 250 228 219 203 190 182 179 183 189 197 208 233 276 306 318 334
98 143 202 224 246 264 286 297 296 287 246 184 127 91 18 358 2 11 18 17 14 8 4 359 349 338 328 316 293 260 234 214 196 185 187 193 192 192 192 206 240 300 323 351
119 167 211 284 277 289 305 326 354 27 35 87 97 64 350 341 9 20 21 17 11 1 356 353 349 344 336 322 308 286 256 229 204 195 196 189 182 181 186 193 203 248 332 7
176 156 151 271 298 346 1 4 78 65 37 64 67 12 341 359 0 4 12 12 3 353 348 346 343 339 333 328 317 296 274 248 217 206 198 187 181 183 188 186 180 189 193 69
168 148 148 198 7 325 176 81 108 97 63 56 59 13 358 342 317 317 19 1 342 336 335 334 333 334 333 330 327 315 297 269 238 220 203 190 183 186 184 180 184 188 178 149
164 147 140 144 192 235 138 41 323 148 82 25 19 355 343 327 313 286 341 333 312 305 302 299 304 310 322 333 331 328 319 302 269 239 218 200 189 185 181 185 188 183 170 161
53 95 127 155 194 229 276 334 326 110 114 13 2 343 334 341 336 297 313 315 310 307 302 298 301 308 318 328 336 333 329 324 310 287 257 220 195 187 186 188 184 176 169 167
5 8 45 217 227 138 329 327 345 32 303 327 332 324 320 307 275 282 296 298 295 294 293 292 294 298 301 310 332 332 329 321 310 307 293 253 213 198 190 184 178 172 167 161
59 27 2 10 322 303 341 21 48 288 289 307 311 305 298 289 287 291 293 292 293 295 292 290 288 286 287 294 306 314 310 310 313 311 299 271 233 212 195 181 178 174 169 164
52 9 139 97 130 160 52 90 231 278 291 292 290 290 289 289 289 291 289 289 291 292 291 288 285 287 286 283 281 290 294 301 310 313 302 279 245 220 193 182 179 174 172 171
1 3 94 87 82 83 71 325 285 279 273 277 279 282 284 284 286 288 289 291 293 291 290 290 291 289 289 286 278 273 284 289 299 305 302 290 257 225 199 185 179 177 179 177
354 5 57 77 355 327 303 291 281 282 283 284 285 285 286 287 291 293 295 294 293 295 295 293 289 286 286 287 283 277 282 284 289 299 297 286 264 233 206 192 187 183 188 184
13 40 52 281 265 264 277 282 288 292 292 294 296 296 294 294 296 298 296 292 292 296 297 297 293 288 287 287 284 282 279 273 277 291 295 282 271 245 214 190 177 187 182 184